Location: Quara
(44.3500°N, 10.5000°E)
Time: 11:50:27
(UTC+00:00)

Daily predictions for brighter satellites

Satellite Brightness Start Highest point End
(mag) Time Altitude Azimuth Time Altitude Azimuth Time Altitude Azimuth
USA 276 2.4 19:14:21 10° WNW 19:17:30 61° NNE 19:20:37 10° ESE
SAR-Lupe-1 4.1 19:20:35 10° NNE 19:24:12 90° WSW 19:27:45 10° SSW
SAR-Lupe-4 3.5 19:22:14 10° NNE 19:25:50 82° ESE 19:29:25 10° SSW
Cosmos 2219 Rocket 4.5 19:26:00 10° NNE 19:27:15 11° NE 19:28:29 10° NE
Cosmos 1633 2.6 19:24:35 10° S 19:28:11 85° W 19:31:49 10° N
BREEZE-M DEB (TANK) 3.0 19:26:49 10° SW 19:29:56 65° SE 19:39:39 10° ENE
Cosmos 1680 Rocket 4.3 19:29:03 10° SSE 19:33:40 32° E 19:38:16 10° NE
Cosmos 1076 Rocket 3.6 19:30:55 10° S 19:35:16 84° W 19:39:40 10° N
Resurs 01 Rocket 1.8 19:31:46 10° SSE 19:36:07 57° ENE 19:40:29 10° N
Cosmos 1689 Rocket 4.4 19:35:17 10° NNW 19:37:40 26° WNW 19:40:01 10° SW
SL-16 R/B 2.6 19:36:02 10° NNW 19:41:36 52° ENE 19:46:27 13° SE
Cosmos 1151 Rocket 4.3 19:38:24 10° NNE 19:42:05 26° ENE 19:44:57 14° ESE
Terra 3.8 19:40:42 10° E 19:43:08 14° ENE 19:45:35 10° NNE
ATLAS 5 CENTAUR R/B 4.4 19:41:52 10° N 19:44:46 15° NNE 19:47:53 10° ENE
Meteor 2-3 Rocket 3.8 19:40:31 10° S 19:46:03 59° E 19:51:41 10° NNE
SPOT 3 Rocket 3.7 19:41:44 10° SSE 19:46:51 61° ENE 19:52:00 10° N
NOSS 2-1 (E) 4.1 19:44:25 10° S 19:47:02 21° ESE 19:49:37 10° ENE
Cosmos 332 Rocket 3.8 19:43:21 10° NNW 19:48:17 86° ENE 19:52:56 11° SSE
CZ-2C R/B 4.3 19:46:34 10° NNE 19:50:43 35° E 19:54:30 12° SSE
Cosmos 1933 3.3 19:49:17 10° N 19:53:19 69° E 19:56:51 13° SSE
Cosmos 1766 Rocket 4.4 19:50:48 14° SSE 19:53:53 31° E 19:57:46 10° NNE
Cosmos 1271 Rocket 2.9 19:50:39 10° N 19:54:37 60° ENE 19:57:44 16° SSE
Gbstr 26 Del rocket 2.6 19:51:41 10° WNW 19:55:25 89° NE 19:58:12 19° ESE
OBJECT-B 3.7 19:54:22 10° SW 19:56:23 16° W 19:58:25 10° NW
SPOT 5 4.0 19:57:34 15° ESE 19:59:57 24° ENE 20:03:29 10° NNE
IGS 5A 3.6 19:56:12 10° S 20:00:19 77° WSW 20:04:30 10° NNW
Cosmos 2098 Rocket 4.0 19:57:38 10° SSW 20:00:41 39° WNW 20:04:22 10° N
ARIANE 5 R/B 3.7 19:58:58 17° ESE 20:01:35 30° ENE 20:05:27 10° N
Meteor 2-19 Rocket 4.4 19:55:51 10° S 20:01:54 89° ESE 20:08:00 10° N
Cosmos 2195 Rocket 4.4 19:58:18 10° S 20:04:23 76° E 20:10:31 10° N
Ariane Rocket 3.8 20:01:05 10° S 20:06:00 50° W 20:10:56 10° NNW
Landsat 7 3.9 20:02:50 11° S 20:07:28 77° WSW 20:12:15 10° NNW
Cosmos 1782 2.9 20:05:18 10° N 20:09:17 61° E 20:11:44 22° SSE
Cosmos 2082 Rocket 4.4 20:07:43 10° WSW 20:12:32 28° NW 20:17:24 10° N
Cosmos 304 Rocket 4.2 20:09:05 10° NNW 20:13:47 59° WSW 20:17:46 14° S
Cosmos 220 Rocket 4.2 20:11:58 10° NNW 20:16:16 57° ENE 20:18:36 25° SE
ATLAS 3B R/B 3.8 20:14:00 10° NW 20:20:34 40° WSW 20:27:19 10° S
Cosmos 2360 Rocket 2.6 20:15:12 10° NNW 20:20:39 48° ENE 20:23:55 23° ESE
MetOp-B 4.2 20:18:47 15° S 20:23:16 77° WSW 20:28:40 10° NNW
Cosmos 1092 Rocket 4.3 20:19:27 10° SSW 20:25:42 72° W 20:32:03 10° N
NOSS 2-1 (C) 2.6 20:27:49 10° SSW 20:31:10 82° ESE 20:34:28 10° NE
ISS -1.5 20:29:06 10° W 20:31:14 16° SW 20:32:13 14° SSW
ERS-2 4.4 20:31:36 10° N 20:34:39 26° WNW 20:37:41 10° SW
Cosmos 2026 Rocket 4.2 20:28:22 10° SSW 20:34:41 76° W 20:40:59 10° N
Cosmos 2084 3.5 20:32:40 10° SW 20:36:43 72° NW 20:40:53 10° NE
COSMOS 2455 3.5 20:34:50 26° SE 20:36:55 33° ESE 20:42:14 10° NE
Cosmos 1833 4.4 20:33:10 15° S 20:37:47 53° ESE 20:43:24 10° NE
NOSS 2-1 (D) 2.8 20:35:35 10° SW 20:38:55 80° NW 20:42:15 10° NE
Cosmos 1812 2.7 20:35:30 10° N 20:39:21 67° E 20:40:31 41° SSE
GP-B 3.3 20:36:33 10° N 20:41:00 71° W 20:44:01 20° SSW
Cosmos 2333 Rocket 3.1 20:36:29 10° NNW 20:41:43 36° NE 20:44:24 24° ESE
SPOT 1/Viking Rocket 4.0 20:38:27 18° S 20:42:17 58° W 20:47:27 10° NNW
ERS-1 Rocket 3.0 20:40:25 31° SE 20:42:46 66° ENE 20:47:46 10° N
BREEZE-M DEB (TANK) 4.3 20:39:41 10° WNW 20:43:34 59° SSW 20:49:45 24° SE
USA 245 4.0 20:42:07 23° S 20:45:03 61° WSW 20:49:01 10° NNW
SL-27 R/B 2.3 20:44:42 38° S 20:45:56 79° ESE 20:49:33 10° NNE
Okean 3 Rocket 3.9 20:48:05 17° SSW 20:51:25 67° W 20:55:56 10° N
Cosmos 1408 Rocket 3.5 20:50:55 41° SSE 20:52:17 66° E 20:56:36 10° NNE
Meteor 2-14 Rocket 4.4 20:48:52 19° S 20:53:26 86° E 20:59:37 10° N
USA 276 3.8 20:50:56 10° W 20:53:10 22° SW 20:53:10 22° SW
Cosmos 2237 Rocket 4.4 20:50:49 10° N 20:53:56 15° NE 20:57:03 10° ENE
Cosmos 2056 Rocket 3.5 20:48:37 10° NNW 20:53:59 84° WSW 20:56:16 35° SSE
Cosmos 2322 Rocket 2.6 20:49:28 10° NNW 20:54:59 56° WSW 20:57:55 27° S
Cosmos 1743 Rocket 4.1 20:55:46 37° ESE 20:56:09 38° E 21:00:17 10° NNE
CARTOSAT-1 4.1 20:59:31 30° SSW 21:01:24 53° W 21:05:38 10° NNW
Meteor 1-10 Rocket 4.1 20:59:33 10° N 21:05:08 81° E 21:07:16 39° SSE
Spot 2 Rocket 4.0 21:03:04 26° SSW 21:05:44 54° W 21:10:46 10° NNW
Cosmos 2219 Rocket 2.6 21:07:10 10° NNW 21:12:38 50° ENE 21:14:26 36° ESE
Resurs 01 Rocket 4.2 21:10:28 10° SW 21:12:58 15° W 21:15:30 10° NW
BREEZE M DEB (TANK) 4.0 21:11:30 10° WSW 21:15:35 78° SSE 21:44:08 10° E
Cosmos 1515 Rocket 3.7 21:15:15 10° NNW 21:19:40 71° W 21:20:37 52° SSW
Terra 1.8 21:19:00 49° S 21:20:16 77° WSW 21:25:03 10° NNW
Cosmos 2266 Rocket 3.9 21:19:57 37° S 21:22:32 80° E 21:28:48 10° N
Cosmos 1553 Rocket 4.5 21:17:10 10° NNW 21:23:03 53° W 21:26:24 26° SSW
Cosmos 2285 Rocket 4.2 21:18:01 10° NNW 21:24:13 57° ENE 21:26:17 40° ESE
SL-16 R/B 3.9 21:20:49 10° NW 21:25:19 25° WSW 21:28:20 16° SW
Cosmos 2315 Rocket 4.1 21:22:44 10° N 21:29:02 64° E 21:30:56 45° SE
IRIDIUM 103 4.4 21:24:20 10° N 21:29:30 58° E 21:30:18 52° ESE
ATLAS 5 CENTAUR R/B 2.9 21:25:16 10° NNW 21:30:35 47° NE 21:33:05 32° E
Cosmos 2333 4.1 21:26:16 10° NNW 21:31:54 84° WSW 21:33:17 53° SSE
Cosmos 494 Rocket 4.4 21:32:48 43° E 21:32:48 43° E 21:37:25 10° NNE
Cosmos 2228 Rocket 3.0 21:30:44 10° N 21:35:09 67° E 21:35:16 67° E
SPOT 5 3.8 21:36:48 29° SW 21:37:52 34° W 21:41:54 10° NNW
ARIANE 5 R/B 4.2 21:36:31 23° SW 21:38:00 28° W 21:41:50 10° NW
COSMOS 2428 2.8 21:34:34 10° NNW 21:40:16 67° ENE 21:41:31 52° ESE
Cosmos 883 Rocket 4.4 21:37:36 10° N 21:43:53 85° W 21:45:47 48° S
NOSS 3-1 (C) 4.1 21:38:27 10° NW 21:46:04 76° WSW 21:49:24 42° SSE
Cosmos 1707 Rocket 4.4 21:42:08 10° N 21:45:57 38° ENE 21:45:57 38° ENE
Cosmos 292 Rocket 4.4 21:41:58 10° NNW 21:46:29 43° WSW 21:47:11 40° SW
IRIDIUM 106 4.2 21:42:30 10° N 21:47:46 85° E 21:48:29 67° SSE
Cosmos 1048 Rocket 3.8 21:48:39 70° S 21:49:11 80° ESE 21:54:20 10° NNE
ALOS 2 3.9 21:59:23 30° ENE 21:59:23 30° ENE 22:03:05 10° N
COSMOS 2487 3.8 22:00:10 36° NNW 22:00:10 36° NNW 22:02:44 10° N
Cosmos 972 Rocket 4.3 21:59:17 43° SW 22:00:48 63° WNW 22:05:46 10° NNE
USA 229 DEB 3.8 21:54:36 10° NW 22:02:00 90° ENE 22:04:27 49° SE
USA 229 3.8 21:54:41 10° NW 22:02:06 89° ENE 22:04:33 48° SE
Cosmos 1805 Rocket 3.6 22:02:11 73° WNW 22:02:11 73° WNW 22:06:35 10° N
Cosmos 2360 Rocket 3.6 21:59:44 10° NW 22:04:21 26° WSW 22:05:41 24° SW
Cosmos 2084 Rocket 4.3 22:05:18 10° NNW 22:09:17 44° NE 22:09:17 44° NE
USA 267 3.1 22:06:13 10° NE 22:12:46 71° SE 22:14:48 46° SSW
Cosmos 1980 4.1 22:11:05 10° NNW 22:16:38 52° ENE 22:17:31 47° E
NOSS 0 Rocket 3.9 22:11:35 10° NNW 22:17:50 76° ENE 22:18:54 61° SE
NOSS 3-1 (A) 4.1 22:14:56 10° NW 22:22:33 74° WSW 22:25:00 50° S
COSMOS 2455 3.7 22:17:53 15° WSW 22:22:41 46° NW 22:28:29 10° NNE
Meteor 1-20 Rocket 4.3 22:23:03 57° SW 22:24:00 68° WNW 22:29:43 10° N
Lacrosse 5 2.7 22:25:49 39° ENE 22:25:49 39° ENE 22:29:07 10° NE
Nadezhda 2 Rocket 4.5 22:23:24 60° SSW 22:24:40 85° W 22:31:08 10° N
Cosmos 2333 Rocket 3.0 22:20:49 10° NW 22:25:58 37° WSW 22:26:23 36° WSW
Cosmos 1452 Rocket 4.3 22:21:12 10° NW 22:26:03 39° WSW 22:26:16 39° WSW
COBE Rocket 4.0 22:26:51 63° WNW 22:26:51 63° WNW 22:31:15 10° NNW
BREEZE-M R/B 3.3 22:27:37 10° W 22:31:56 48° NE 22:35:40 10° ENE
Cosmos 2297 Rocket 2.6 22:32:07 50° E 22:32:07 50° E 22:37:03 10° NE
Cosmos 1500 4.5 22:34:31 39° N 22:34:31 39° N 22:37:00 10° N
Sich 1 4.0 22:34:10 42° WNW 22:34:10 42° WNW 22:38:09 10° N
Cosmos 1244 Rocket 4.5 22:34:47 61° SW 22:35:50 76° W 22:42:05 10° N
Cosmos 2237 Rocket 2.2 22:33:22 10° NNW 22:39:05 72° ENE 22:39:29 69° E
Cosmos 1470 Rocket 4.4 22:43:08 43° NE 22:43:08 43° NE 22:46:15 10° NNE
Cosmos 1633 Rocket 3.6 22:44:04 56° NNW 22:44:04 56° NNW 22:47:37 10° N
Cosmos 2227 Rocket 2.7 22:44:30 46° E 22:44:30 46° E 22:49:15 10° NE
USA 234 3.5 22:42:59 32° ESE 22:46:11 65° NNE 22:52:39 10° NW
Cosmos 1666 Rocket 4.4 22:50:45 47° NW 22:50:45 47° NW 22:54:36 10° N
Cosmos 1331 Rocket 4.5 22:45:52 10° NNW 22:50:32 49° W 22:50:32 49° W
Cosmos 1340 Rocket 4.5 22:54:24 29° NE 22:54:24 29° NE 22:56:33 10° NNE
Cosmos 2219 Rocket 3.6 22:51:46 10° NW 22:56:08 25° W 22:56:08 25° W
NOSS 2-2 (E) 4.4 22:54:14 10° NW 22:59:50 89° SW 23:00:50 68° SSE
SL-16 R/B 2.9 23:03:09 10° NNW 23:08:35 45° ENE 23:09:38 41° E
ATLAS 5 CENTAUR R/B 3.2 23:09:56 10° NW 23:14:35 37° WSW 23:14:35 37° WSW
Intercosmos 25 Rocket 4.4 23:24:02 49° NE 23:24:02 49° NE 23:28:37 10° NNE
COSMOS 2428 4.5 23:20:05 10° WNW 23:23:31 19° W 23:23:31 19° W
NOSS 2-2 (C) 4.4 23:19:16 10° NW 23:24:48 75° SW 23:25:11 72° SSW
Meteor 2-4 Rocket 4.1 23:19:08 10° NNW 23:24:53 54° W 23:24:59 54° W
Cosmos 1666 4.4 23:26:25 31° NNW 23:26:25 31° NNW 23:28:48 10° N
Meteor 1-11 Rocket 3.7 23:25:58 66° E 23:25:58 66° E 23:31:17 10° NNE
Cosmos 1703 Rocket 4.3 23:26:21 10° N 23:29:38 50° NNW 23:29:38 50° NNW
Cosmos 1709 Rocket 3.8 23:30:39 75° S 23:31:15 88° E 23:37:40 10° N
PSLV R/B 4.1 23:30:04 10° NNE 23:34:07 62° NE 23:34:07 62° NE
ALOS 2 4.3 23:36:46 24° WNW 23:36:46 24° WNW 23:39:20 10° NW
Cosmos 1992 Rocket 4.0 23:31:49 10° NNW 23:36:41 77° NNW 23:36:41 77° NNW
Cosmos 909 Rocket 4.2 23:36:15 61° SW 23:37:34 83° NW 23:45:20 10° NNE
Cosmos 1745 Rocket 4.5 23:39:16 45° WSW 23:40:13 48° WNW 23:46:19 10° N
Cosmos 2219 3.6 23:42:23 51° W 23:43:08 55° WNW 23:48:47 10° NNE
CZ-2D R/B 4.0 23:41:12 10° NE 23:44:56 19° E 23:45:32 18° E
Cosmos 1066 Rocket 4.1 23:42:38 10° NNW 23:48:32 84° W 23:48:43 82° SW
Timation 1 Rocket 4.4 23:51:21 60° W 23:52:05 66° WNW 23:58:04 10° NNE
Meteor 1-13 Rocket 4.3 23:46:49 10° NNW 23:52:26 66° W 23:52:26 66° W
